• In Belarus
  • List of Countries
  • For 7 days
  • Water Temperature
  • Weather Map
  • Weather Widgets
  • user-avatar
    Login

    Hourly Weather Linz

    Today, 27 February, Thursday

    Time Temperature Precipitation Wind Pressure Humidity
    00:00 -1°C° 0.3 mm 5 mps 726 mmHg 86%
    01:00 -2°C° 0 mm 6 mps 726 mmHg 85%
    02:00 -2°C° 0.2 mm 6 mps 726 mmHg 87%
    03:00 -2°C° 0.2 mm 6 mps 727 mmHg 89%
    04:00 -2°C° 0.2 mm 6 mps 727 mmHg 90%
    05:00 -2°C° 0.1 mm 6 mps 727 mmHg 90%
    06:00 -2°C° 0.1 mm 6 mps 728 mmHg 89%
    07:00 -1°C° 0 mm 5 mps 728 mmHg 89%
    08:00 -1°C° 0.1 mm 5 mps 728 mmHg 84%
    09:00 0°C° 0.1 mm 5 mps 728 mmHg 79%
    10:00 +1°C° 0.1 mm 5 mps 728 mmHg 74%
    11:00 +3°C° 0.1 mm 4 mps 727 mmHg 69%
    12:00 +4°C° 0.1 mm 4 mps 726 mmHg 63%
    13:00 +4°C° 0 mm 4 mps 725 mmHg 55%
    14:00 +4°C° 0 mm 4 mps 724 mmHg 55%
    15:00 +4°C° 0 mm 3 mps 723 mmHg 56%
    16:00 +4°C° 0 mm 3 mps 721 mmHg 56%
    17:00 +4°C° 0.1 mm 3 mps 721 mmHg 62%
    18:00 +3°C° 0.1 mm 3 mps 720 mmHg 68%
    19:00 +3°C° 0.1 mm 2 mps 719 mmHg 73%
    20:00 +3°C° 0.2 mm 2 mps 718 mmHg 77%
    21:00 +2°C° 0.2 mm 2 mps 718 mmHg 80%
    22:00 +3°C° 0.2 mm 1 mps 717 mmHg 83%
    23:00 0°C° 0.9 mm 4 mps 718 mmHg 86%

    Tomorrow, 28 February, Friday

    Time Temperature Precipitation Wind Pressure Humidity
    00:00 -2°C° 0.9 mm 7 mps 718 mmHg 90%
    01:00 -3°C° 0.9 mm 10 mps 719 mmHg 93%
    02:00 -3°C° 0.9 mm 10 mps 720 mmHg 92%
    03:00 -3°C° 0.9 mm 9 mps 722 mmHg 91%
    04:00 -3°C° 0.9 mm 9 mps 723 mmHg 90%
    05:00 -3°C° 0.3 mm 9 mps 725 mmHg 89%
    06:00 -2°C° 0.3 mm 8 mps 727 mmHg 87%
    07:00 -2°C° 0.3 mm 7 mps 728 mmHg 86%
    08:00 -2°C° 0.5 mm 8 mps 729 mmHg 88%
    09:00 -2°C° 0.5 mm 8 mps 731 mmHg 90%
    10:00 -2°C° 0.5 mm 8 mps 732 mmHg 92%
    11:00 -1°C° 0.2 mm 8 mps 733 mmHg 88%
    12:00 -1°C° 0.2 mm 9 mps 733 mmHg 84%
    13:00 0°C° 0.2 mm 9 mps 734 mmHg 80%
    14:00 0°C° 0.1 mm 8 mps 734 mmHg 78%
    15:00 0°C° 0.1 mm 7 mps 734 mmHg 76%
    16:00 +2°C° 0.1 mm 6 mps 735 mmHg 74%
    17:00 0°C° 0 mm 4 mps 735 mmHg 78%
    18:00 0°C° 0 mm 3 mps 735 mmHg 83%
    19:00 -1°C° 0 mm 2 mps 735 mmHg 87%
    20:00 -2°C° 0 mm 2 mps 735 mmHg 87%
    21:00 -2°C° 0 mm 2 mps 735 mmHg 87%
    22:00 -2°C° 0 mm 2 mps 735 mmHg 86%
    23:00 -2°C° 0 mm 2 mps 735 mmHg 85%

    Day after tomorrow, 29 February, Saturday

    Time Temperature Precipitation Wind Pressure Humidity
    00:00 -2°C° 0 mm 2 mps 734 mmHg 84%
    01:00 -2°C° 0 mm 2 mps 734 mmHg 83%
    02:00 -2°C° 0 mm 2 mps 733 mmHg 82%
    03:00 -2°C° 0 mm 2 mps 732 mmHg 81%
    04:00 -2°C° 0 mm 2 mps 732 mmHg 80%
    05:00 -1°C° 0 mm 2 mps 731 mmHg 78%
    06:00 -1°C° 0 mm 2 mps 730 mmHg 77%
    07:00 -1°C° 0 mm 2 mps 730 mmHg 76%
    08:00 +1°C° 0 mm 2 mps 729 mmHg 72%
    09:00 +2°C° 0 mm 2 mps 728 mmHg 69%
    10:00 +4°C° 0 mm 2 mps 728 mmHg 66%
    11:00 +5°C° 0 mm 2 mps 727 mmHg 66%
    12:00 +6°C° 0 mm 2 mps 726 mmHg 67%
    13:00 +7°C° 0 mm 2 mps 725 mmHg 67%
    14:00 +6°C° 0 mm 2 mps 725 mmHg 70%
    15:00 +6°C° 0 mm 2 mps 724 mmHg 74%
    16:00 +6°C° 0 mm 2 mps 723 mmHg 78%
    17:00 +6°C° 0 mm 2 mps 723 mmHg 79%
    18:00 +5°C° 0 mm 2 mps 724 mmHg 81%
    19:00 +5°C° 0 mm 1 mps 724 mmHg 83%
    20:00 +5°C° 0 mm 1 mps 724 mmHg 82%
    21:00 +4°C° 0 mm 1 mps 724 mmHg 82%
    22:00 +4°C° 0 mm 1 mps 724 mmHg 81%
    23:00 +3°C° 0 mm 2 mps 725 mmHg 81%

    1 March, Sunday

    Time Temperature Precipitation Wind Pressure Humidity
    00:00 +3°C° 0 mm 2 mps 725 mmHg 80%
    01:00 +3°C° 0 mm 2 mps 725 mmHg 80%
    02:00 +3°C° 0.1 mm 2 mps 726 mmHg 83%
    03:00 +3°C° 0.1 mm 2 mps 726 mmHg 86%
    04:00 +3°C° 0.1 mm 2 mps 726 mmHg 89%
    05:00 +3°C° 0 mm 2 mps 726 mmHg 90%
    06:00 +4°C° 0 mm 1 mps 727 mmHg 91%
    07:00 +4°C° 0 mm 1 mps 727 mmHg 93%
    08:00 +4°C° 0 mm 2 mps 727 mmHg 89%
    09:00 +5°C° 0 mm 2 mps 727 mmHg 86%
    10:00 +6°C° 0 mm 2 mps 727 mmHg 82%
    11:00 +7°C° 0 mm 2 mps 727 mmHg 77%
    12:00 +8°C° 0 mm 2 mps 726 mmHg 71%
    13:00 +9°C° 0 mm 2 mps 726 mmHg 66%
    14:00 +9°C° 0 mm 2 mps 726 mmHg 67%
    15:00 +9°C° 0 mm 2 mps 725 mmHg 69%
    16:00 +9°C° 0 mm 2 mps 724 mmHg 71%
    17:00 +7°C° 0 mm 2 mps 724 mmHg 76%
    18:00 +6°C° 0 mm 2 mps 724 mmHg 81%
    19:00 +5°C° 0 mm 2 mps 724 mmHg 86%
    20:00 +4°C° 0 mm 2 mps 723 mmHg 86%
    21:00 +4°C° 0 mm 2 mps 722 mmHg 87%
    22:00 +4°C° 0 mm 2 mps 722 mmHg 87%
    23:00 +3°C° 0 mm 2 mps 721 mmHg 88%

    2 March, Monday

    Time Temperature Precipitation Wind Pressure Humidity
    00:00 +4°C° 0 mm 1 mps 721 mmHg 89%
    01:00 +4°C° 0 mm 1 mps 720 mmHg 91%
    02:00 +2°C° 0.4 mm 3 mps 721 mmHg 92%
    03:00 +1°C° 0.4 mm 5 mps 721 mmHg 92%
    04:00 +2°C° 0.4 mm 7 mps 721 mmHg 93%
    05:00 +2°C° 0.1 mm 6 mps 721 mmHg 90%
    06:00 +2°C° 0.1 mm 5 mps 722 mmHg 88%
    07:00 +3°C° 0.1 mm 4 mps 722 mmHg 85%
    08:00 +4°C° 0 mm 4 mps 722 mmHg 80%
    09:00 +5°C° 0 mm 4 mps 722 mmHg 74%
    10:00 +6°C° 0 mm 5 mps 722 mmHg 69%
    11:00 +7°C° 0 mm 4 mps 722 mmHg 64%
    12:00 +9°C° 0 mm 3 mps 721 mmHg 59%
    13:00 +10°C° 0 mm 1 mps 721 mmHg 55%
    14:00 +9°C° 0 mm 2 mps 721 mmHg 56%
    15:00 +9°C° 0 mm 2 mps 720 mmHg 57%
    16:00 +9°C° 0 mm 2 mps 719 mmHg 58%
    17:00 +8°C° 0 mm 2 mps 720 mmHg 63%
    18:00 +7°C° 0 mm 2 mps 720 mmHg 69%
    19:00 +6°C° 0 mm 1 mps 720 mmHg 74%
    20:00 +5°C° 0.2 mm 2 mps 721 mmHg 78%
    21:00 +4°C° 0.2 mm 3 mps 721 mmHg 81%
    22:00 +3°C° 0.2 mm 4 mps 721 mmHg 84%
    23:00 +3°C° 0.4 mm 4 mps 722 mmHg 86%

    3 March, Tuesday

    Time Temperature Precipitation Wind Pressure Humidity
    00:00 +3°C° 0.4 mm 4 mps 722 mmHg 89%
    01:00 +3°C° 0.4 mm 4 mps 722 mmHg 91%
    02:00 +3°C° 0.1 mm 4 mps 722 mmHg 89%
    03:00 +3°C° 0.1 mm 4 mps 722 mmHg 86%
    04:00 +1°C° 0.1 mm 5 mps 722 mmHg 84%
    05:00 +1°C° 0 mm 4 mps 723 mmHg 85%
    06:00 +1°C° 0 mm 4 mps 724 mmHg 86%
    07:00 +2°C° 0 mm 3 mps 725 mmHg 88%
    08:00 +1°C° 0.1 mm 4 mps 725 mmHg 85%
    09:00 +2°C° 0.1 mm 5 mps 726 mmHg 81%
    10:00 +2°C° 0.1 mm 5 mps 726 mmHg 78%
    11:00 +3°C° 0.1 mm 5 mps 726 mmHg 74%
    12:00 +5°C° 0.1 mm 5 mps 727 mmHg 70%
    13:00 +6°C° 0.1 mm 5 mps 727 mmHg 67%
    14:00 +5°C° 0 mm 5 mps 727 mmHg 66%
    15:00 +5°C° 0 mm 5 mps 727 mmHg 66%
    16:00 +5°C° 0 mm 4 mps 727 mmHg 65%
    17:00 +4°C° 0 mm 3 mps 727 mmHg 71%
    18:00 +4°C° 0 mm 2 mps 728 mmHg 77%
    19:00 +4°C° 0 mm 1 mps 728 mmHg 83%
    20:00 +3°C° 0 mm 1 mps 728 mmHg 83%
    21:00 +3°C° 0 mm 1 mps 729 mmHg 84%
    22:00 +2°C° 0 mm 1 mps 729 mmHg 84%
    23:00 +2°C° 0 mm 1 mps 729 mmHg 86%
    Show more